TimePDT,TemperatureF,Dew PointF,Humidity,Sea Level PressureIn,VisibilityMPH,Wind Direction,Wind SpeedMPH,Gust SpeedMPH,PrecipitationIn,Events,Conditions,WindDirDegrees,DateUTC
12:15 AM,57.2,57.2,100,29.98,10.0,Calm,Calm,-,N/A,,Mostly Cloudy,0,2013-08-27 07:15:00
12:35 AM,59.0,57.2,94,29.98,10.0,Calm,Calm,-,N/A,,Mostly Cloudy,0,2013-08-27 07:35:00
12:55 AM,57.2,57.2,100,29.97,10.0,Calm,Calm,-,N/A,,Mostly Cloudy,0,2013-08-27 07:55:00
1:15 AM,59.0,57.2,94,29.97,10.0,Calm,Calm,-,N/A,,Overcast,0,2013-08-27 08:15:00
1:35 AM,59.0,57.2,94,29.98,10.0,Calm,Calm,-,N/A,,Mostly Cloudy,0,2013-08-27 08:35:00
1:55 AM,59.0,57.2,94,29.98,7.0,Calm,Calm,-,N/A,,Overcast,0,2013-08-27 08:55:00
2:15 AM,59.0,57.2,94,29.97,10.0,Calm,Calm,-,N/A,,Overcast,0,2013-08-27 09:15:00
2:35 AM,59.0,57.2,94,29.96,9.0,Calm,Calm,-,N/A,,Mostly Cloudy,0,2013-08-27 09:35:00
2:55 AM,59.0,57.2,94,29.96,10.0,Calm,Calm,-,N/A,,Mostly Cloudy,0,2013-08-27 09:55:00
3:15 AM,59.0,59.0,100,29.95,9.0,Calm,Calm,-,N/A,,Mostly Cloudy,0,2013-08-27 10:15:00
3:35 AM,59.0,59.0,100,29.95,10.0,Calm,Calm,-,N/A,Rain,Light Rain,0,2013-08-27 10:35:00
3:55 AM,57.2,57.2,100,29.96,10.0,Calm,Calm,-,N/A,,Mostly Cloudy,0,2013-08-27 10:55:00
4:15 AM,59.0,59.0,100,29.96,10.0,Calm,Calm,-,N/A,,Mostly Cloudy,0,2013-08-27 11:15:00
4:35 AM,59.0,59.0,100,29.95,3.0,Calm,Calm,-,N/A,,Mostly Cloudy,0,2013-08-27 11:35:00
4:55 AM,59.0,59.0,100,29.96,10.0,Calm,Calm,-,N/A,,Mostly Cloudy,0,2013-08-27 11:55:00
5:15 AM,59.0,59.0,100,29.95,7.0,Calm,Calm,-,N/A,,Mostly Cloudy,0,2013-08-27 12:15:00
5:35 AM,59.0,59.0,100,29.95,4.0,Calm,Calm,-,N/A,,Mostly Cloudy,0,2013-08-27 12:35:00
5:55 AM,59.0,59.0,100,29.95,10.0,Calm,Calm,-,N/A,,Scattered Clouds,0,2013-08-27 12:55:00
6:15 AM,57.2,57.2,100,29.94,10.0,Calm,Calm,-,N/A,,Scattered Clouds,0,2013-08-27 13:15:00
6:35 AM,57.2,57.2,100,29.94,8.0,Calm,Calm,-,N/A,,Partly Cloudy,0,2013-08-27 13:35:00
6:55 AM,57.2,57.2,100,29.95,7.0,Calm,Calm,-,N/A,,Scattered Clouds,0,2013-08-27 13:55:00
7:15 AM,57.2,57.2,100,29.95,10.0,Calm,Calm,-,N/A,,Partly Cloudy,0,2013-08-27 14:15:00
7:35 AM,57.2,57.2,100,29.95,10.0,Calm,Calm,-,N/A,,Scattered Clouds,0,2013-08-27 14:35:00
7:55 AM,59.0,59.0,100,29.95,8.0,Calm,Calm,-,N/A,,Scattered Clouds,0,2013-08-27 14:55:00
8:15 AM,60.8,60.8,100,29.95,9.0,Calm,Calm,-,N/A,,Scattered Clouds,0,2013-08-27 15:15:00
8:35 AM,62.6,60.8,94,29.95,4.0,Calm,Calm,-,N/A,,Scattered Clouds,0,2013-08-27 15:35:00
8:55 AM,64.4,60.8,88,29.96,1.0,Calm,Calm,-,N/A,,Mostly Cloudy,0,2013-08-27 15:55:00
9:15 AM,64.4,59.0,83,29.95,8.0,Calm,Calm,-,N/A,,Scattered Clouds,0,2013-08-27 16:15:00
9:35 AM,64.4,59.0,83,29.95,10.0,Calm,Calm,-,N/A,,Scattered Clouds,0,2013-08-27 16:35:00
9:55 AM,66.2,59.0,78,29.95,5.0,Calm,Calm,-,N/A,,Haze,0,2013-08-27 16:55:00
10:15 AM,66.2,59.0,78,29.95,10.0,Calm,Calm,-,N/A,,Partly Cloudy,0,2013-08-27 17:15:00
10:35 AM,66.2,59.0,78,29.95,10.0,Calm,Calm,-,N/A,,Scattered Clouds,0,2013-08-27 17:35:00
10:55 AM,68.0,60.8,78,29.94,4.0,Calm,Calm,-,N/A,,Haze,0,2013-08-27 17:55:00
11:15 AM,71.6,59.0,64,29.93,10.0,East,4.6,-,N/A,,Mostly Cloudy,90,2013-08-27 18:15:00
11:35 AM,71.6,59.0,64,29.93,7.0,Calm,Calm,-,N/A,,Scattered Clouds,0,2013-08-27 18:35:00
11:55 AM,73.4,59.0,61,29.92,10.0,Calm,Calm,-,N/A,,Scattered Clouds,0,2013-08-27 18:55:00
12:15 PM,73.4,59.0,61,29.91,10.0,Calm,Calm,-,N/A,,Scattered Clouds,0,2013-08-27 19:15:00
12:35 PM,73.4,57.2,57,29.90,10.0,Calm,Calm,-,N/A,,Scattered Clouds,0,2013-08-27 19:35:00
12:55 PM,75.2,59.0,57,29.89,10.0,Calm,Calm,-,N/A,,Mostly Cloudy,0,2013-08-27 19:55:00
1:15 PM,75.2,57.2,53,29.89,10.0,Calm,Calm,-,N/A,,Mostly Cloudy,0,2013-08-27 20:15:00
1:35 PM,75.2,57.2,53,29.87,10.0,Calm,Calm,-,N/A,,Partly Cloudy,0,2013-08-27 20:35:00
1:55 PM,77.0,57.2,50,29.87,10.0,Calm,Calm,-,N/A,,Mostly Cloudy,0,2013-08-27 20:55:00
2:15 PM,78.8,57.2,47,29.86,10.0,Calm,Calm,-,N/A,,Scattered Clouds,0,2013-08-27 21:15:00
2:35 PM,80.6,57.2,45,29.86,10.0,Calm,Calm,-,N/A,,Mostly Cloudy,0,2013-08-27 21:35:00
2:55 PM,80.6,57.2,45,29.85,10.0,NW,5.8,-,N/A,,Mostly Cloudy,320,2013-08-27 21:55:00
3:15 PM,78.8,57.2,47,29.84,10.0,Calm,Calm,-,N/A,,Mostly Cloudy,0,2013-08-27 22:15:00
3:35 PM,80.6,59.0,48,29.84,10.0,Calm,Calm,-,N/A,,Mostly Cloudy,0,2013-08-27 22:35:00
3:55 PM,78.8,57.2,47,29.83,10.0,East,3.5,-,N/A,,Mostly Cloudy,100,2013-08-27 22:55:00
4:15 PM,80.6,59.0,48,29.84,10.0,Calm,Calm,-,N/A,,Mostly Cloudy,0,2013-08-27 23:15:00
4:35 PM,80.6,57.2,45,29.83,10.0,North,3.5,-,N/A,,Mostly Cloudy,360,2013-08-27 23:35:00
4:55 PM,77.0,57.2,50,29.83,10.0,NNW,3.5,-,N/A,,Mostly Cloudy,340,2013-08-27 23:55:00
5:15 PM,77.0,59.0,54,29.83,10.0,Calm,Calm,-,N/A,,Mostly Cloudy,0,2013-08-28 00:15:00
5:35 PM,77.0,57.2,50,29.82,10.0,Calm,Calm,-,N/A,,Mostly Cloudy,0,2013-08-28 00:35:00
5:55 PM,77.0,57.2,50,29.82,10.0,Calm,Calm,-,N/A,,Mostly Cloudy,0,2013-08-28 00:55:00
6:15 PM,75.2,57.2,53,29.82,10.0,NNW,3.5,-,N/A,,Overcast,330,2013-08-28 01:15:00
6:35 PM,75.2,57.2,53,29.82,10.0,Calm,Calm,-,N/A,,Overcast,0,2013-08-28 01:35:00
6:55 PM,75.2,59.0,57,29.82,10.0,Calm,Calm,-,N/A,,Overcast,0,2013-08-28 01:55:00
7:15 PM,73.4,59.0,61,29.82,10.0,Calm,Calm,-,N/A,,Mostly Cloudy,0,2013-08-28 02:15:00
7:35 PM,73.4,59.0,61,29.82,10.0,Calm,Calm,-,N/A,,Mostly Cloudy,0,2013-08-28 02:35:00
7:55 PM,71.6,59.0,64,29.82,10.0,Calm,Calm,-,N/A,,Mostly Cloudy,0,2013-08-28 02:55:00
8:15 PM,69.8,59.0,68,29.83,10.0,Calm,Calm,-,N/A,,Mostly Cloudy,0,2013-08-28 03:15:00
8:35 PM,68.0,60.8,78,29.83,10.0,Calm,Calm,-,N/A,,Mostly Cloudy,0,2013-08-28 03:35:00
8:55 PM,68.0,60.8,78,29.83,10.0,Calm,Calm,-,N/A,,Overcast,0,2013-08-28 03:55:00
9:15 PM,69.8,59.0,68,29.85,10.0,Calm,Calm,-,N/A,,Overcast,0,2013-08-28 04:15:00
9:35 PM,68.0,62.6,83,29.85,10.0,Calm,Calm,-,N/A,,Overcast,0,2013-08-28 04:35:00
9:55 PM,68.0,62.6,83,29.85,10.0,Calm,Calm,-,N/A,,Overcast,0,2013-08-28 04:55:00
10:15 PM,66.2,64.4,94,29.86,10.0,Calm,Calm,-,N/A,,Overcast,0,2013-08-28 05:15:00
10:35 PM,66.2,64.4,94,29.86,10.0,Calm,Calm,-,N/A,,Mostly Cloudy,0,2013-08-28 05:35:00
10:55 PM,66.2,64.4,94,29.87,10.0,Calm,Calm,-,N/A,,Mostly Cloudy,0,2013-08-28 05:55:00
11:15 PM,64.4,64.4,100,29.87,10.0,Calm,Calm,-,N/A,,Overcast,0,2013-08-28 06:15:00
11:35 PM,64.4,64.4,100,29.87,10.0,Calm,Calm,-,N/A,,Mostly Cloudy,0,2013-08-28 06:35:00
11:55 PM,64.4,64.4,100,29.87,10.0,Calm,Calm,-,N/A,,Overcast,0,2013-08-28 06:55:00